Weather History for KBDN - February, 2013

Change the Weather History Date:

Tuesday, February 26, 2013

  Actual Average (KRDM) Record (KRDM)
Temperature  
Mean Temperature 34 °F 37 °F  
Max Temperature 48 °F 49 °F 64 °F (1970)
Min Temperature 19 °F 24 °F -7 °F (2011)
Degree Days  
Heating Degree Days 32 28  
Month to date heating degree days 778  
Since 1 July heating degree days 4618  
Cooling Degree Days 0 0  
Month to date cooling degree days 0  
Year to date cooling degree days 0  
Moisture  
Dew Point 5 °F    
Average Humidity 37    
Maximum Humidity 68    
Minimum Humidity 9    
Precipitation  
Precipitation 0.00 in 0.03 in 0.21 in (2000)
Month to date precipitation 0.61  
Year to date precipitation 1.58  
Sea Level Pressure  
Sea Level Pressure 30.24 in    
Wind  
Wind Speed 5 mph (SSW)    
Max Wind Speed 12 mph    
Max Gust Speed -    
Visibility 10 miles    
Events      
T = Trace of Precipitation, MM = Missing Value Source: NWS Daily Summary

Daily Weather History Graph

Daily Weather History Graph

Search for Another Location

Airport or City:

Trip Planner

Search our weather history database for the weather conditions in past years. The results will help you decide how hot, cold, wet, or windy it might be!

Date:

Astronomy

Feb. 26, 2013 Rise Set
Actual Time 6:46 AM PST 5:49 PM PST
Civil Twilight 6:17 AM PST 6:18 PM PST
Nautical Twilight 5:43 AM PST 6:52 PM PST
Astronomical Twilight 5:10 AM PST 7:25 PM PST
Moon 7:16 PM PST (2/26) 6:47 AM PST (2/26)
Length of Visible Light 12h 01m
Length of Day
11h 03m
Full, 99% of the Moon is Illuminated
Feb 26
Full
Mar 4
Last Quarter
Mar 11
New
Mar 19
First Quarter
Mar 27
Full

Hourly Weather History & Observations

Time (PST) Temp. Windchill Dew Point Humidity Pressure Visibility Wind Dir Wind Speed Gust Speed Precip Events Conditions
12:15 AM 24.8 °F 20.5 °F 14.0 °F 64% 30.26 in 10.0 mi WNW 3.5 mph - N/A   Clear
12:35 AM 24.8 °F 20.5 °F 14.0 °F 64% 30.26 in 10.0 mi WSW 3.5 mph - N/A   Clear
12:55 AM 24.8 °F 20.5 °F 14.0 °F 64% 30.27 in 10.0 mi WSW 3.5 mph - N/A   Clear
1:15 AM 24.8 °F - 14.0 °F 64% 30.27 in 10.0 mi Calm Calm - N/A   Clear
1:35 AM 23.0 °F 18.4 °F 14.0 °F 68% 30.27 in 10.0 mi SSW 3.5 mph - N/A   Clear
1:55 AM 23.0 °F 18.4 °F 12.2 °F 63% 30.27 in 10.0 mi SSW 3.5 mph - N/A   Clear
2:15 AM 21.2 °F - 12.2 °F 68% 30.27 in 10.0 mi Calm Calm - N/A   Clear
2:35 AM 21.2 °F 16.4 °F 12.2 °F 68% 30.27 in 10.0 mi WSW 3.5 mph - N/A   Clear
2:55 AM 19.4 °F 12.8 °F 10.4 °F 68% 30.27 in 10.0 mi SSW 4.6 mph - N/A   Clear
3:15 AM 19.4 °F 10.4 °F 10.4 °F 68% 30.27 in 10.0 mi SSW 6.9 mph - N/A   Clear
3:35 AM 23.0 °F 17.0 °F 12.2 °F 63% 30.27 in 10.0 mi SW 4.6 mph - N/A   Clear
3:55 AM 23.0 °F 17.0 °F 12.2 °F 63% 30.27 in 10.0 mi SW 4.6 mph - N/A   Clear
4:15 AM 23.0 °F 14.7 °F 12.2 °F 63% 30.27 in 10.0 mi SSW 6.9 mph - N/A   Clear
4:35 AM 23.0 °F 17.0 °F 12.2 °F 63% 30.26 in 10.0 mi SSW 4.6 mph - N/A   Clear
4:55 AM 19.4 °F 14.3 °F 10.4 °F 68% 30.27 in 10.0 mi South 3.5 mph - N/A   Clear
5:15 AM 19.4 °F 11.5 °F 10.4 °F 68% 30.27 in 10.0 mi South 5.8 mph - N/A   Clear
5:35 AM 19.4 °F 10.4 °F 10.4 °F 68% 30.27 in 10.0 mi SE 6.9 mph - N/A   Clear
5:55 AM 19.4 °F 10.4 °F 10.4 °F 68% 30.28 in 10.0 mi SSE 6.9 mph - N/A   Clear
6:15 AM 19.4 °F 10.4 °F 10.4 °F 68% 30.28 in 10.0 mi South 6.9 mph - N/A   Clear
6:35 AM 23.0 °F 14.7 °F 10.4 °F 59% 30.28 in 10.0 mi South 6.9 mph - N/A   Clear
6:55 AM 21.2 °F 13.6 °F 10.4 °F 63% 30.28 in 10.0 mi SSE 5.8 mph - N/A   Clear
7:15 AM 19.4 °F 10.4 °F 8.6 °F 63% 30.29 in 10.0 mi SSE 6.9 mph - N/A   Clear
7:35 AM 24.8 °F 17.9 °F 10.4 °F 54% 30.28 in 10.0 mi South 5.8 mph - N/A   Clear
7:55 AM 24.8 °F 19.1 °F 10.4 °F 54% 30.29 in 10.0 mi SE 4.6 mph - N/A   Clear
8:15 AM 26.6 °F 21.2 °F 12.2 °F 55% 30.28 in 10.0 mi South 4.6 mph - N/A   Clear
8:35 AM 30.2 °F 24.3 °F 12.2 °F 47% 30.29 in 10.0 mi SSE 5.8 mph - N/A   Clear
8:55 AM 32.0 °F 25.6 °F 14.0 °F 48% 30.29 in 10.0 mi SSW 6.9 mph - N/A   Clear
9:15 AM 32.0 °F 24.2 °F 12.2 °F 44% 30.30 in 10.0 mi SW 9.2 mph - N/A   Clear
9:35 AM 33.8 °F 27.0 °F 8.6 °F 35% 30.30 in 10.0 mi South 8.1 mph - N/A   Clear
9:55 AM 35.6 °F 28.0 °F 5.0 °F 28% 30.28 in 10.0 mi SSW 10.4 mph - N/A   Clear
10:15 AM 37.4 °F 32.8 °F 3.2 °F 24% 30.27 in 9.0 mi South 5.8 mph - N/A   Clear
10:35 AM 37.4 °F 32.1 °F -0.4 °F 20% 30.27 in 10.0 mi SSW 6.9 mph - N/A   Clear
10:55 AM 37.4 °F 31.4 °F 1.4 °F 22% 30.26 in 10.0 mi SE 8.1 mph - N/A   Clear
11:15 AM 39.2 °F 33.6 °F -0.4 °F 19% 30.25 in 10.0 mi SSE 8.1 mph - N/A   Clear
11:35 AM 39.2 °F 33.0 °F -5.8 °F 15% 30.24 in 10.0 mi SE 9.2 mph - N/A   Clear
12:15 PM 42.8 °F 40.1 °F -7.6 °F 12% 30.23 in 10.0 mi South 4.6 mph - N/A   Clear
12:35 PM 42.8 °F - -13.0 °F 9% 30.22 in 10.0 mi Calm Calm - N/A   Clear
12:55 PM 44.6 °F 40.7 °F -11.2 °F 9% 30.22 in 10.0 mi West 6.9 mph - N/A   Clear
1:15 PM 42.8 °F 39.3 °F -2.2 °F 15% 30.22 in 10.0 mi WSW 5.8 mph - N/A   Clear
1:35 PM 44.6 °F 42.2 °F -2.2 °F 14% 30.21 in 10.0 mi WSW 4.6 mph - N/A   Clear
1:55 PM 44.6 °F - -2.2 °F 14% 30.21 in 10.0 mi Calm Calm - N/A   Clear
2:15 PM 46.4 °F 41.9 °F -2.2 °F 13% 30.21 in 10.0 mi WSW 9.2 mph - N/A   Clear
2:35 PM 46.4 °F 43.5 °F -2.2 °F 13% 30.20 in 10.0 mi SSW 5.8 mph - N/A   Clear
2:55 PM 46.4 °F - -2.2 °F 13% 30.20 in 10.0 mi Calm Calm - N/A   Clear
3:15 PM 48.2 °F - -2.2 °F 12% 30.19 in 10.0 mi South 8.1 mph - N/A   Clear
3:35 PM 48.2 °F - -4.0 °F 11% 30.19 in 10.0 mi South 8.1 mph - N/A   Clear
3:55 PM 48.2 °F - -4.0 °F 11% 30.18 in 10.0 mi South 4.6 mph - N/A   Clear
4:15 PM 46.4 °F 43.5 °F -2.2 °F 13% 30.18 in 10.0 mi SW 5.8 mph - N/A   Clear
4:35 PM 46.4 °F - -0.4 °F 14% 30.19 in 10.0 mi Calm Calm - N/A   Clear
4:55 PM 46.4 °F - -0.4 °F 14% 30.19 in 10.0 mi Calm Calm - N/A   Clear
5:15 PM 46.4 °F - -0.4 °F 14% 30.19 in 10.0 mi Calm Calm - N/A   Clear
5:35 PM 46.4 °F 44.3 °F -0.4 °F 14% 30.19 in 10.0 mi SW 4.6 mph - N/A   Clear
5:55 PM 44.6 °F - -0.4 °F 15% 30.19 in 10.0 mi Calm Calm - N/A   Clear
6:15 PM 41.0 °F - 1.4 °F 19% 30.18 in 10.0 mi Calm Calm - N/A   Clear
6:35 PM 39.2 °F - 3.2 °F 22% 30.19 in 10.0 mi Calm Calm - N/A   Clear
6:55 PM 39.2 °F - 5.0 °F 24% 30.20 in 10.0 mi Calm Calm - N/A   Clear
7:15 PM 37.4 °F - 5.0 °F 26% 30.20 in 10.0 mi Calm Calm - N/A   Clear
7:35 PM 37.4 °F - 5.0 °F 26% 30.20 in 10.0 mi Calm Calm - N/A   Clear
7:55 PM 37.4 °F - 5.0 °F 26% 30.20 in 10.0 mi Calm Calm - N/A   Clear
8:15 PM 37.4 °F 32.1 °F 6.8 °F 28% 30.19 in 10.0 mi SSE 6.9 mph - N/A   Clear
8:35 PM 39.2 °F 33.6 °F 6.8 °F 26% 30.20 in 10.0 mi SSW 8.1 mph - N/A   Clear
8:55 PM 39.2 °F 33.0 °F 6.8 °F 26% 30.21 in 10.0 mi SSW 9.2 mph - N/A   Clear
9:15 PM 39.2 °F 32.0 °F 5.0 °F 24% 30.21 in 10.0 mi SSW 11.5 mph - N/A   Clear
9:35 PM 39.2 °F 32.5 °F 6.8 °F 26% 30.21 in 10.0 mi SSW 10.4 mph - N/A   Scattered Clouds
9:55 PM 37.4 °F 29.8 °F 5.0 °F 26% 30.21 in 10.0 mi SSW 11.5 mph - N/A   Partly Cloudy
10:15 PM 37.4 °F 30.8 °F 5.0 °F 26% 30.21 in 10.0 mi SSW 9.2 mph - N/A   Clear
10:35 PM 35.6 °F 29.2 °F 6.8 °F 30% 30.21 in 10.0 mi SSW 8.1 mph - N/A   Partly Cloudy
10:55 PM 33.8 °F 27.7 °F 6.8 °F 32% 30.21 in 10.0 mi SSW 6.9 mph - N/A   Partly Cloudy
11:15 PM 35.6 °F 29.2 °F 5.0 °F 28% 30.21 in 10.0 mi SSW 8.1 mph - N/A   Clear
11:35 PM 35.6 °F 29.9 °F 3.2 °F 26% 30.21 in 10.0 mi SSW 6.9 mph - N/A   Clear
11:55 PM 32.0 °F 28.7 °F 5.0 °F 32% 30.21 in 10.0 mi SSE 3.5 mph - N/A   Clear